Other Public Products
Issued by NWS Grand Forks, ND

Home | Current Version | Previous Version | Text Only | Print | Product List | Glossary Off
Versions: 1 2 3 4 5 6 7 8 9 10 11 12 13 14 15 16 17 18 19 20 21 22 23 24 25 26 27 28 29 30 31 32 33 34 35 36 37 38 39 40 41 42 43 44 45 46 47 48 49 50

000
FPUS83 KFGF 241331
OPUFGF
PRAIRIE TO PINES WEATHER ROUNDUP
NATIONAL WEATHER SERVICE EASTERN NORTH DAKOTA/GRAND FORKS ND
800 AM CDT THU APR 24 2014

 **SATELLITE DATA USED TO AUGMENT SKY COVER AT AUTOMATED STATIONS**
 *****  WEATHER ACROSS EASTERN NORTH DAKOTA  *****

CITY           SKY/WX    TMP DP  RH WIND       PRES   REMARKS
GRAND FORKS    CLOUDY    40  38  93 SE10      29.77S
GRAND FORKS AF CLOUDY    39  39 100 SE8       29.77S
GRAND CITY NWS   N/A     39 N/A N/A SE7         N/A
BUXTON         NOT AVBL
DEVILS LAKE    CLOUDY    37  34  87 SE9       29.72R VSB 1/4
FARGO          LGT RAIN  41  39  93 SE6       29.76S FOG
WAHPETON ARPT  CLOUDY    39  36  87 CALM      29.77R
$$

 *****  WEATHER ACROSS CENTRAL AND WESTERN NORTH DAKOTA  *****

CITY           SKY/WX    TMP DP  RH WIND       PRES   REMARKS
JAMESTOWN      FOG       36  36 100 SE5       29.72S VSB 1/4
BISMARCK       SUNNY     40  30  67 W7        29.75R
MINOT          SUNNY     40  30  67 SW15      29.66R
MINOT AFB      SUNNY     38  35  88 W15       29.65R
GARRISON         N/A     35  30  82 SW3       29.70R
WILLISTON      SUNNY     38  27  64 SW10      29.70S
DICKINSON      MOSUNNY   41  25  53 W18       29.74R
HETTINGER      MOSUNNY   37  26  64 W7        29.79S
$$

 *****  OTHER OBSERVATIONS NORTHEAST NORTH DAKOTA  *****

CITY           SKY/WX    TMP DP  RH WIND       PRES   REMARKS
WALHALLA       CLOUDY    37  37 100 SE10      29.76S FOG
LANGDON        FOG       37  36  93 SE13      29.72S VSB<1/4
CAVALIER       FOG       37  37 100 SE8       29.77S VSB 1
GRAFTON        CLOUDY    37  37 100 SE12      29.77S FOG
CANDO          FOG       37  37 100 SE10      29.71S VSB<1/4
FORT TOTTEN      N/A     38  38 100 SE7       29.95S
ROLLA          FOG       36  36 100 S9        29.69F VSB<1/4
RUGBY          FOG       36  36 100 SE7       29.68S VSB<1/4
 ***** THE ABOVE OBSERVATIONS ARE NON NWS ARE NOT QUALITY
        CONTROLLED AND MAY MIS-REPORT RAIN FOR SNOW...
$$

 *****  OTHER OBSERVATIONS SOUTHEAST NORTH DAKOTA *****

CITY           SKY/WX    TMP DP  RH WIND       PRES   REMARKS
COOPERSTOWN    CLOUDY    37  37 100 S8        29.74R FOG
VALLEY CITY    CLOUDY    37  37 100 S6        29.74S FOG
OAKES          FAIR      39  39 100 NE3       29.74R FOG
GWINNER        SUNNY     41  41 100 SE5       29.76R
BUFFALO        NOT AVBL
WYNDMERE       NOT AVBL
 ***** THE ABOVE OBSERVATIONS ARE NON NWS ARE NOT QUALITY
       CONTROLLED AND MAY MIS-REPORT RAIN FOR SNOW...
$$

  *****  WEATHER ACROSS NORTHERN MINNESOTA  *****

CITY           SKY/WX    TMP DP  RH WIND       PRES   REMARKS
FLAG ISLAND    DRIZZLE   36  34  93 E9        29.86F
WARROAD        CLOUDY    37  34  87 E10G16    29.85R
ROSEAU         DRIZZLE   37  34  87 SE10      29.83S
HALLOCK        LGT RAIN  39  37  93 SE14      29.78F
THF RVR FALLS  CLOUDY    37  34  87 E13       29.80F
HALSTAD          N/A     40  39  97 SE5         N/A
FOSSTON        RAIN      37  36  93 SE8       29.79S
BAUDETTE       CLOUDY    37  35  92 SE10      29.87F
WASKISH        LGT SNOW  37  36  93 E10       29.84F
CROOKSTON      MIX PCPN  37  37 100 SE7       29.79F
$$
  *****  WEATHER ACROSS CENTRAL AND WEST MINNESOTA  *****

CITY           SKY/WX    TMP DP  RH WIND       PRES   REMARKS
BEMIDJI        CLOUDY    36  35  96 E10       29.80F FOG
PARK RAPIDS    CLOUDY    38  38 100 SE9       29.77F FOG
WADENA         DRIZZLE   39  37  93 E10       29.77S
DETROIT LAKES  CLOUDY    39  37  93 SE9       29.78S FOG
MOORHEAD       RAIN      41  41 100 CALM      29.77F
FERGUS FALLS   DRIZZLE   41  36  81 SE7       29.74S
ELBOW LAKE     DRIZZLE   40  39  97 E7        29.75R
MORRIS MN      DRZL/FOG  41  39  93 E7        29.74R VSB 1
STAPLES        CLOUDY    39  37  93 SE6       29.78F FOG
WHEATON        LGT RAIN  43  39  87 NE3       29.78R
$$
  *****  WEATHER ELSEWHERE ACROSS MINNESOTA  *****

CITY           SKY/WX    TMP DP  RH WIND       PRES   REMARKS
DULUTH         DRIZZLE   35  33  92 SE20      29.92S FOG     WCI  24
INTRNTL FALLS  CLOUDY    38  35  89 SE10      29.90R
ELY            CLOUDY    37  34  87 SE13G18   29.94F
CLOQUET        DRIZZLE   36  34  93 E12       29.90S
BRAINERD       CLOUDY    43  37  79 E9        29.80F HAZE
HIBBING        CLOUDY    37  34  89 SE14      29.90S
ALEXANDRIA     CLOUDY    39  37  93 E10       29.76R FOG
SAINT CLOUD    CLOUDY    43  39  87 E8        29.78F FOG
MINNEAPOLIS    LGT RAIN  40  39  97 E14       29.79F
$$

  *****  WEATHER ACROSS SOUTH DAKOTA  *****

CITY           SKY/WX    TMP DP  RH WIND       PRES   REMARKS
SIOUX FALLS    CLOUDY    46  45  96 NW7       29.71R FOG
BROOKINGS      NOT AVBL
WATERTOWN      RAIN      40  38  93 NW5       29.74R FOG
HURON          CLOUDY    43  41  93 N5        29.75R FOG
SISSETON         N/A     39  39 100 SE3       29.74R
ABERDEEN       CLOUDY    38  38 100 NW5       29.74S
MITCHELL       CLOUDY    45  43  93 NW7       29.76R
PIERRE         MOSUNNY   45  31  58 NW12      29.78R
MOBRIDGE       SUNNY     41  30  65 NW10      29.75R
RAPID CITY     SUNNY     40  22  48 W7        29.85S
$$

  *****  SOME WEATHER IN NEARBY STATES *****

CITY           SKY/WX    TMP DP  RH WIND       PRES   REMARKS
GLASGOW MT     CLEAR     33  27  78 W5        29.75R
GREAT FALLS MT CLOUDY    40  30  67 SW15      29.79S
CHEYENNE WY    CLEAR     32  15  49 W12       29.98S WCI  23
SCOTTSBLUFF NE CLEAR     33  23  66 NW8       29.96R
OMAHA NE       LGT RAIN  49  46  90 N7        29.62F FOG
DES MOINES IA  LGT RAIN  52  44  74 SE13      29.64S
DAVENPORT IA   PTSUNNY   48  37  65 SE22G30   29.84F
CHICAGO IL     CLOUDY    46  34  62 E10       30.00F
EAU CLAIRE WI  RAIN      38  36  92 E15       29.89F
LA CROSSE WI   RAIN      40  38  93 SE10      29.89F
$$

  *****  SOME NATIONAL WEATHER *****

CITY           SKY/WX    TMP DP  RH WIND       PRES   REMARKS
LA GUARDIA NY  MOSUNNY   45  15  30 NW20G28   29.92R
RALEIGH NC     MOSUNNY   53  31  42 E6        30.15R
ATLANTA GA     MOSUNNY   57  38  48 E12       30.04S
NEW ORLEANS LA MOSUNNY   68  67  96 CALM      29.96R FOG
OKLAHOMA CITY  CLOUDY    66  61  82 SW13      29.67R
ALBUQUERQUE NM CLEAR     47  10  22 N16       30.10R
SALT LAKE CITY MOCLDY    41  25  53 S15       30.05S
LOS ANGELES CA PTCLDY    58  50  75 CALM      29.95R
BOISE ID       LGT RAIN  47  34  60 S5        29.92S
SEATTLE WA     LGT RAIN  52  48  87 SW10G21   29.65R FOG
$$

*** WEATHER ACROSS MANITOBA...SASKATCHEWAN AND ONTARIO ***
                ***ONTARIO***

CITY           SKY/WX    TMP DP  RH WIND       PRES   REMARKS
GERALDTON      PTSUNNY   37  23  56 S6        30.12F
THUNDER BAY    CLOUDY    36  28  75 E14       30.09R
SIOUX LOOKOUT  PTSUNNY   39  21  48 SE3       30.00S
TORONTO        MOSUNNY   43  18  36 N10       30.16R
BIG TROUT LK   SUNNY     27  18  69 E10       30.18S WCI  17
PICKLE LAKE    PTSUNNY   37  21  52 S7        30.03F
DRYDEN         CLOUDY    37  28  70 E9        29.96S
KENORA         DRIZZLE   37  36  93 SE14      29.90S
$$
                *** MANITOBA***

CITY           SKY/WX    TMP DP  RH WIND       PRES   REMARKS
BRANDON        FOG       37  37 100 SE8       29.71R VSB 1/4
DAUPHIN        LGT RAIN  36  36 100 SE15      29.73S FOG
ISLAND LAKE    PTSUNNY   27  23  86 NE13G22   30.11  WCI  16
PILOT MOUND      N/A     37  36  93 SE12        N/A
THE PAS        CLOUDY    28  23  80 E17G29    29.93S WCI  16
THOMPSON       CLOUDY    19  16  86 E15G21    30.20S WCI   5
WINNIPEG       LGT RAIN  39  37  93 SE14G21   29.82R
LYNN LAKE      CLOUDY    19  16  86 E16G24    30.16F WCI   5
CHURCHILL      LGT SNOW  18  14  86 E5        30.44S WCI  11
GILLAM         FLURRIES N/A N/A N/A E6          N/A
$$
                ***SASKATCHEWAN***

CITY           SKY/WX    TMP DP  RH WIND       PRES   REMARKS
ESTEVAN        MOSUNNY   36  32  87 W10       29.65S
KINDERSLEY     CLOUDY    36  32  87 W20G25    29.62R
LLOYDMINSTER   LGT SNOW  32  32 100 NE6       29.60R FOG
PRINCE ALBERT  LGT SNOW  34  32  93 E22G29    29.65R WCI  22
REGINA         PTSUNNY   39  37  93 W9        29.65R
YORKTON        CLOUDY    36  36 100 SE12      29.63R



USA.gov is the U.S. government's official web portal to all federal, state and local government web resources and services.